Showing default

TRANSIT 4A, 116

Orbit data source: Space-Track

TRANSIT 4A, 116 is a payload satellite owned by USN BuWeps (US) in LEO that was launched on Thu, 29 Jun 1961 UTC via a THOR ABLESTAR launch vehicle from the Air Force Eastern Test Range (AFETR). Payload-class satellites include a variety of spacecraft equipped with specific instruments for various scientific and technological missions. These include communications satellites like Starlink; space stations such as the ISS; scientific satellites like the Hubble; Earth observation satellites from companies like Planet Labs, Umbra, and HawkEye 360; GPS; miniature CubeSats for education and research; and military/defense satellites.

Loading next visibility...
Identifier
116, 1961-015A
Orbit
LEO
Country
Flag of USUS
Related business
Manufacturer
APL
Mission
Spacecraft
Bus & Motor
TRANSIT 4, Unknown motor
Mass
78 kg wet, 78 kg dry
Launch date (UTC)
1961-06-29 (65 years ago)
Launch vehicle
THOR ABLESTAR
Launch site
Air Force Eastern Test Range (AFETR)
Object type
Payload
Rocket body
Debris
Shape & HBR
Unknown
Radar Cross Section
Large (>1 m²)

Expand to show TLE details & history
Last TLE update: 2 days ago

TLE from 2 days ago
0 TRANSIT 4A
1 00116U 61015A   26162.79713005  .00000005  00000-0  62077-4 0  9991
2 00116  66.8099 264.0187 0082252 276.2445  82.9270 13.92331223295952
Epoch: 2026-06-11T19:07Z
TLE epoch observation values (Epoch: 2026-06-11T19:07:52.036Z)
Latitude
-0.00001°
Longitude
76.9161°
Altitude
915.645 km
Speed
7.398 km/s
True Right ascension
17h 36m 04s
True Declination
0° 00' 00"
Sunlit
Object was in full shadow at epoch
Visualization orbit readout
Latitude
Unknown
Longitude
Unknown
Altitude
Unknown
Speed
Unknown
Apparent Right ascension
Unknown
Apparent Declination
Unknown
Sunlit
N/A
Visualization observer readout
Local Sidereal Time
19:00:53
Azimuth
Unknown
Elevation
Unknown
Doppler factor
Unknown
Orbital elements
Apogee altitude
978.883 km
Perigee altitude
858.844 km
Semi-major axis
7,297.001 km
Eccentricity
0.00823
Inclination
66.8099°
RAAN
264.0187°
Arg. of periapsis
276.2445°
True anomaly
83.86351°
Mean anomaly
82.927°
Eccentric anomaly
83.39514°
Mean motion
3.48198 °/min
Orbital period
103.39 mins
BSTAR
0.000062077
Loading maneuver chart data...
Computing Atmospheric mass density...

Documentation

Showing up to 5 results
|